This is the latest recevied weather packets stored in our database for station/object KD0MAC. If no packets are shown the sender has not sent any weather packets the latest 10 day(s).
| Time | Temp. | Humidity | Pressure | Rain* | Wind** | Luminosity | Snow |
|---|---|---|---|---|---|---|---|
| 1788635935 | 36.67° C | 33% | 1014.2 hPa | 0 mm | - | 538 W/m² | - |
| 1788635635 | 37.22° C | 35% | 1014.2 hPa | 0 mm | - | 545 W/m² | - |
| 1788635334 | 36.67° C | 36% | 1014.6 hPa | 0 mm | - | 542 W/m² | - |
| 1788635076 | 36.67° C | 34% | 1014.6 hPa | 0 mm | - | 544 W/m² | - |
| 1788634775 | 37.22° C | 35% | 1014.6 hPa | 0 mm | - | 539 W/m² | - |
| 1788634476 | 36.67° C | 36% | 1014.6 hPa | 0 mm | - | 547 W/m² | - |
| 1788634176 | 37.22° C | 35% | 1014.6 hPa | 0 mm | - | 543 W/m² | - |
| 1788633875 | 36.67° C | 35% | 1014.6 hPa | 0 mm | - | 548 W/m² | - |
| 1788633575 | 36.11° C | 37% | 1014.6 hPa | 0 mm | - | 553 W/m² | - |
| 1788633534 | 36.11° C | 37% | 1014.6 hPa | 0 mm | - | 553 W/m² | - |
| 1788633276 | 36.67° C | 37% | 1014.6 hPa | 0 mm | - | 546 W/m² | - |
| 1788633250 | 36.67° C | 37% | 1014.6 hPa | 0 mm | - | 546 W/m² | - |
| 1788632934 | 36.11° C | 39% | 1014.6 hPa | 0 mm | - | 546 W/m² | - |
| 1788632634 | 36.11° C | 39% | 1014.6 hPa | 0 mm | - | 543 W/m² | - |
| 1788632334 | 36.11° C | 38% | 1014.9 hPa | 0 mm | - | 547 W/m² | - |
| 1788632034 | 35.56° C | 41% | 1014.9 hPa | 0 mm | - | 536 W/m² | - |
| 1788631775 | 35.56° C | 39% | 1014.9 hPa | 0 mm | - | 540 W/m² | - |
| 1788631734 | 35.56° C | 39% | 1014.9 hPa | 0 mm | - | 540 W/m² | - |
| 1788631475 | 35.56° C | 41% | 1014.9 hPa | 0 mm | - | 536 W/m² | - |
| 1788631449 | 35.56° C | 41% | 1014.9 hPa | 0 mm | - | 536 W/m² | - |
| 1788631135 | 35° C | 41% | 1014.9 hPa | 0 mm | - | 537 W/m² | - |
| 1788630835 | 36.11° C | 39% | 1014.9 hPa | 0 mm | - | 531 W/m² | - |
| 1788630534 | 35.56° C | 40% | 1014.9 hPa | 0 mm | - | 521 W/m² | - |
| 1788630234 | 35° C | 40% | 1014.9 hPa | 0 mm | - | 521 W/m² | - |
| 1788629975 | 35.56° C | 40% | 1014.9 hPa | 0 mm | - | 515 W/m² | - |
* Rain latest hour (hover to see other rain measurements)
** Current wind speed in m/s (hover to see current wind gust speed)